Tracking 19908 objects as of 19-Oct-2019
HD Live streaming from Space Station
objects crossing your sky now

IRIDIUM 33 DEB

Track IRIDIUM 33 DEB now!
10-day predictions


NORAD ID: 34366
Int'l Code: 1997-051FJ
Perigee: 756.4 km
Apogee: 793.8 km
Inclination: 86.4 °
Period: 100.2 minutes
Semi major axis: 7146 km
RCS: 0.0424 m2 (small)
Launch date: September 14, 1997
Source: United States (US)
Launch site: TYURATAM MISSILE AND SPACE COMPLEX (TTMTR)

Note: This is SATELLITE DEBRIS
aabbcc
Your satellite tracking list
Your tracking list is empty




NASA's NSSDC Master Catalog

Two Line Element Set (TLE):
1 34366U 97051FJ  19291.45538236  .00000477  00000-0  15332-3 0  9997
2 34366  86.3724 285.9400 0026147  16.9652 136.8810 14.37142139558012
Source of the keplerian elements: AFSPC